Home   Weather   Norderstedt   Past weeks

Flag for Germany Past Weather in Norderstedt, Schleswig-Holstein, Germany — Yesterday and Last 2 Weeks

Now
25 °F

Clear.


Feels Like: 25 °F
Forecast: 24 / 33 °F
Wind: 2 mph from North

Location: Hamburg-Fuhlsbuettel

Current Time: Jan 16, 2017 at 8:34:30 pm

Latest Report: Jan 16, 2017 at 7:50 pm


Visibility: 10 mi

Pressure: 30.42 "Hg

Humidity: 93%

Dew Point: 23 °F

Location of NorderstedtLocation

Past Weather in Norderstedt — Graph

°F

Norderstedt Temperature Yesterday

Maximum temperature yesterday: 36 °F (at 12:20 pm)
Minimum temperature yesterday: 23 °F (at 10:50 pm)
Average temperature yesterday: 31 °F

High & Low Weather Summary for the Past Weeks

 TemperatureHumidityPressure
High45 °F (Jan 3, 7:50 pm)100% (Jan 1, 8:50 pm)30.77 "Hg (Jan 1, 8:50 pm)
Low12 °F (Jan 6, 5:20 am)51% (Jan 4, 7:20 pm)29.06 "Hg (Jan 13, 4:50 am)
Average33 °F88%29.97 "Hg
* Reported Jan 1 7:20 pm — Jan 16 7:20 pm, Norderstedt, Weather by CustomWeather, © 2017

Note: Actual official high and low records may vary slightly from our data, if they occured in-between our weather recording intervals... More about our weather records

Advertising

Norderstedt Weather History for the Previous 24 Hours

Scroll right to see more
 ConditionsComfort  
Time TempWeatherWind HumidityBarometerVisibility
7:20 pm
Mon, Jan 16
27 °FClear.3 mph93%30.42 "Hg10 mi
6:50 pm28 °FClear.3 mph93%30.42 "Hg10 mi
6:20 pm28 °FClear.6 mph86%30.39 "Hg10 mi
5:50 pm30 °FClear.6 mph86%30.39 "Hg10 mi
5:20 pm30 °FClear.3 mph86%30.39 "Hg10 mi
4:50 pm32 °FPassing clouds.5 mph80%30.39 "HgN/A
4:20 pm32 °FPassing clouds.6 mph87%30.39 "HgN/A
3:50 pm34 °FPassing clouds.7 mph81%30.36 "HgN/A
3:20 pm34 °FPassing clouds.6 mph81%30.36 "HgN/A
2:50 pm34 °FPassing clouds.7 mph81%30.36 "HgN/A
2:20 pm34 °FPassing clouds.6 mph87%30.33 "HgN/A
1:50 pm34 °FPassing clouds.8 mph81%30.33 "HgN/A
1:20 pm34 °FPassing clouds.7 mph87%30.33 "HgN/A
12:50 pm32 °FPassing clouds.6 mph87%30.33 "HgN/A
12:20 pm32 °FSunny.6 mph87%30.33 "Hg10 mi
11:50 am30 °FSunny.6 mph93%30.33 "Hg10 mi
11:20 am28 °FSunny.7 mph93%30.33 "Hg10 mi
10:50 am28 °FSunny.6 mph93%30.33 "Hg10 mi
10:20 am27 °FSunny.5 mph93%30.33 "Hg10 mi
9:50 am25 °FSunny.6 mph100%30.30 "Hg10 mi
9:20 am21 °FSunny.5 mph93%30.30 "Hg10 mi
8:50 am18 °FSunny.3 mph100%30.30 "Hg10 mi
8:20 am19 °FClear.2 mph100%30.30 "Hg10 mi
7:50 am19 °FClear.5 mph100%30.27 "Hg10 mi
7:20 am19 °FClear.3 mph100%30.27 "Hg10 mi
6:50 am19 °FClear.3 mph93%30.27 "Hg10 mi
6:20 am19 °FClear.3 mph100%30.27 "Hg10 mi
5:50 am19 °FClear.1 mph100%30.24 "Hg10 mi
5:20 am18 °FClear.3 mph100%30.24 "Hg10 mi
4:50 am18 °FClear.5 mph100%30.24 "Hg10 mi
4:20 am21 °FClear.3 mph93%30.24 "Hg10 mi
3:50 am19 °FClear.3 mph100%30.24 "Hg10 mi
3:20 am19 °FClear.5 mph100%30.24 "Hg10 mi
2:50 am19 °FClear.5 mph100%30.21 "Hg10 mi
2:20 am19 °FClear.5 mph100%30.21 "Hg10 mi
1:50 am19 °FClear.3 mph100%30.21 "Hg10 mi
1:20 am21 °FClear.5 mph93%30.21 "Hg10 mi
12:50 am21 °FClear.No wind93%30.21 "Hg10 mi
12:20 am23 °FClear.2 mph93%30.18 "Hg10 mi
11:50 pm
Sun, Jan 15
23 °FClear.3 mph93%30.18 "Hg10 mi
11:20 pm25 °FClear.6 mph93%30.18 "Hg10 mi
10:50 pm23 °FClear.5 mph100%30.18 "Hg10 mi
10:20 pm25 °FClear.2 mph93%30.15 "Hg10 mi
9:50 pm25 °FClear.3 mph93%30.15 "Hg10 mi
9:20 pm25 °FClear.3 mph100%30.15 "Hg10 mi
8:50 pm25 °FClear.5 mph100%30.15 "Hg10 mi
8:20 pm27 °FClear.6 mph100%30.15 "Hg10 mi
Weather by CustomWeather, © 2017

See weather overviewHow to use our weather pages